Temp
11 11 12 11 11 11 11 11 11 10 10 10 10 9 10 10 9 9 9 8 7 7 7 8 7 8 7 7 7 7 8 9 9 9 9 9 9 9 9 9 9 9 10 9 9 9 9 9 9
11 11 11 12 11 11 11 11 10 10 11 10 10 10 10 10 9 9 9 7 6 6 7 7 7 7 7 7 7 8 8 9 9 9 9 9 9 9 9 9 9 9 9 9 9 9 9 9 9
11 11 12 12 12 11 11 11 11 11 10 11 11 8 9 10 9 9 8 7 7 7 7 7 7 7 7 7 8 8 8 8 8 8 8 9 9 9 9 9 9 9 9 9 9 9 9 9 9
11 12 12 12 12 12 12 11 11 10 9 10 10 10 9 9 9 8 8 8 7 7 7 7 8 7 8 8 8 8 8 8 8 8 8 9 9 9 9 9 9 9 10 10 10 10 9 9 9
11 11 11 11 12 12 11 10 11 10 10 10 11 9 8 8 8 8 7 7 7 8 7 7 7 7 7 8 8 8 8 8 8 9 9 8 8 9 9 9 9 9 9 10 10 9 9 9 9
10 11 11 11 12 11 11 11 10 10 10 10 10 9 8 7 7 7 7 7 7 8 8 8 7 8 8 7 7 8 8 8 8 8 8 9 9 8 8 9 9 9 10 9 9 9 9 9 10
10 10 10 10 11 12 11 10 11 11 10 10 10 9 7 8 8 8 7 8 8 7 8 8 8 8 8 7 8 8 8 9 9 8 8 8 9 9 8 9 9 9 9 9 9 9 9 10 10
10 9 8 9 10 12 11 10 10 11 10 10 9 10 9 8 8 8 7 8 9 8 7 8 8 8 7 8 8 8 8 9 9 9 9 8 8 9 8 9 9 9 9 9 9 9 10 10 10
10 8 8 9 10 10 10 10 10 9 11 10 9 10 9 8 8 8 8 8 9 8 8 8 8 8 7 8 8 8 8 8 8 9 9 9 8 8 8 8 8 9 9 9 9 9 10 10 10
10 10 9 9 11 10 10 10 11 11 10 9 9 9 8 8 8 8 8 8 8 8 8 8 8 8 8 8 8 8 8 8 8 9 9 9 9 9 8 8 8 9 9 9 9 10 10 10 10
10 9 10 10 10 11 10 10 10 11 10 10 11 10 8 8 8 8 8 8 8 8 8 8 8 8 8 8 8 8 8 8 9 9 9 9 9 9 8 8 9 8 8 8 9 9 10 10 10
10 10 9 9 10 9 10 9 11 10 10 10 10 10 8 8 8 9 9 8 8 8 8 8 8 8 9 8 8 8 8 8 8 8 8 8 8 9 9 8 8 8 8 8 8 9 9 10 10
10 9 9 9 9 10 10 10 11 10 10 10 10 9 8 8 8 8 8 8 8 8 8 8 8 8 8 8 8 8 8 8 8 8 8 8 9 9 9 9 8 8 8 8 8 8 9 9 10
11 10 9 9 9 10 11 11 11 11 11 9 9 9 8 8 8 8 8 8 8 8 8 8 8 8 8 8 8 8 8 8 7 7 8 8 8 8 9 9 9 9 9 9 8 8 8 9 10
10 10 9 10 9 10 11 11 10 10 11 10 9 9 8 8 8 9 8 8 8 8 8 8 8 7 7 7 7 8 8 8 7 7 7 8 8 9 9 10 9 9 9 9 9 9 9 9 9
11 10 9 10 10 10 10 9 10 9 9 10 10 9 9 9 8 9 8 8 9 9 8 8 8 8 7 7 8 8 8 8 8 8 7 8 9 9 9 9 10 9 9 9 9 10 9 9 8
11 10 11 11 11 10 11 10 10 10 9 10 10 10 10 9 8 9 9 9 8 8 9 9 9 8 8 8 8 9 8 8 8 8 8 10 10 9 9 9 9 9 9 10 9 10 10 9 8
12 10 12 11 11 11 10 10 10 10 10 10 9 10 10 10 9 9 9 9 8 8 8 8 9 9 8 8 7 8 8 7 7 7 9 10 10 9 9 9 9 9 10 10 11 11 11 11 9
13 12 13 12 12 12 11 10 11 11 10 10 10 10 10 10 9 9 9 9 8 8 8 7 8 9 8 8 8 7 8 7 7 7 9 10 9 10 10 10 10 9 9 10 10 11 11 10 10
13 12 12 13 13 11 11 11 10 11 11 10 10 9 9 9 9 9 10 9 8 8 8 8 8 8 8 7 8 8 8 8 7 8 10 9 9 9 9 9 9 9 10 10 10 10 10 10 10
13 13 13 13 12 12 11 10 11 11 11 11 10 10 10 10 9 10 10 9 9 9 9 9 8 9 9 8 8 8 8 8 8 9 9 9 10 9 9 9 9 9 9 10 10 10 10 10 10
14 14 13 13 13 12 11 11 12 12 12 11 10 10 10 11 9 9 10 11 9 9 8 9 9 10 9 8 8 8 8 8 8 9 9 10 10 10 10 9 9 9 10 10 10 10 10 10 10
14 14 13 14 13 12 12 10 13 12 12 11 11 10 10 10 10 10 10 10 10 9 9 9 9 10 9 9 8 8 8 8 8 9 9 10 10 10 9 9 9 9 9 10 10 9 10 10 10
14 14 13 13 12 10 11 10 12 11 12 11 11 10 10 10 10 10 10 10 10 10 9 9 9 9 9 9 9 8 8 9 9 9 8 10 11 10 10 10 10 10 9 10 10 10 11 10 10
14 14 13 12 9 9 11 10 11 11 11 11 10 11 10 10 10 10 9 9 10 11 10 10 9 10 10 9 9 9 9 9 9 9 9 10 10 11 11 10 10 10 11 11 10 10 10 10 10
14 14 13 10 8 10 11 11 11 10 11 10 10 10 10 10 10 10 9 10 10 11 10 10 9 10 10 10 10 9 9 9 8 9 9 10 11 11 11 10 10 10 10 10 10 10 10 10 10
13 13 12 11 10 9 10 10 10 10 10 9 9 10 11 10 10 10 9 9 9 10 11 10 9 10 10 10 10 10 9 10 9 9 10 10 10 9 9 10 10 9 10 10 9 10 10 10 10
13 12 12 11 8 8 9 9 10 11 11 9 9 10 11 11 10 10 10 9 9 10 11 10 10 10 10 11 11 10 10 10 10 9 10 10 10 9 10 10 10 10 10 10 10 10 10 10 9
12 12 12 11 10 7 6 9 11 10 11 10 10 10 10 10 10 10 10 9 9 10 11 10 10 10 10 10 11 11 11 10 10 10 10 10 9 10 9 10 10 10 10 10 10 10 10 10 10
12 12 11 11 9 9 9 10 10 10 10 9 9 8 9 9 9 10 10 9 9 10 10 9 10 10 10 10 11 11 11 11 10 10 10 10 9 9 9 10 10 10 10 10 10 10 10 10 10
Height
3168 3169 3167 3168 3173 3170 3169 3171 3170 3170 3169 3169 3168 3169 3170 3168 3169 3171 3166 3166 3166 3169 3170 3170 3173 3175 3178 3181 3182 3184 3184 3189 3191 3193 3193 3195 3196 3196 3197 3198 3199 3200 3200 3200 3201 3202 3203 3203 3204
3169 3169 3169 3170 3172 3171 3171 3172 3171 3171 3170 3170 3169 3169 3170 3170 3169 3168 3167 3167 3171 3172 3172 3172 3175 3177 3179 3180 3182 3185 3188 3190 3192 3194 3196 3196 3198 3199 3201 3202 3202 3202 3202 3203 3203 3204 3205 3206 3206
3171 3170 3171 3170 3171 3171 3172 3173 3172 3173 3173 3170 3167 3170 3172 3172 3172 3171 3170 3170 3174 3176 3176 3176 3179 3180 3182 3184 3185 3184 3187 3192 3194 3196 3197 3198 3201 3203 3203 3204 3205 3205 3205 3206 3207 3207 3207 3208 3210
3174 3174 3174 3173 3174 3174 3170 3170 3171 3174 3175 3174 3172 3172 3175 3177 3177 3176 3175 3177 3178 3180 3179 3181 3182 3184 3186 3187 3189 3191 3192 3194 3196 3198 3200 3201 3203 3204 3205 3206 3206 3207 3208 3209 3210 3210 3211 3211 3212
3176 3175 3174 3174 3176 3177 3176 3176 3172 3174 3176 3177 3178 3176 3176 3180 3181 3181 3181 3182 3182 3182 3182 3183 3186 3188 3189 3191 3192 3193 3195 3198 3200 3202 3203 3204 3205 3206 3206 3208 3208 3209 3211 3212 3213 3214 3215 3215 3215
3175 3176 3177 3177 3177 3179 3178 3176 3177 3177 3178 3179 3178 3177 3179 3182 3183 3183 3184 3184 3184 3185 3186 3187 3189 3191 3193 3194 3195 3196 3198 3200 3202 3203 3205 3206 3207 3208 3209 3211 3212 3212 3213 3214 3215 3216 3217 3217 3218
3177 3177 3176 3178 3178 3178 3178 3177 3178 3178 3180 3182 3180 3178 3180 3183 3186 3186 3185 3187 3187 3188 3189 3190 3193 3194 3196 3196 3198 3199 3201 3202 3203 3204 3206 3207 3209 3210 3212 3213 3214 3215 3216 3216 3217 3218 3219 3219 3220
3174 3176 3174 3175 3177 3179 3180 3181 3181 3181 3181 3182 3184 3181 3181 3184 3185 3186 3188 3189 3189 3188 3190 3193 3195 3197 3197 3198 3201 3202 3203 3203 3205 3206 3208 3209 3210 3212 3213 3214 3216 3217 3218 3219 3220 3220 3221 3222 3222
3175 3181 3176 3178 3179 3181 3181 3179 3179 3183 3181 3183 3184 3184 3184 3185 3186 3190 3191 3190 3191 3191 3193 3195 3198 3199 3199 3200 3202 3204 3204 3205 3207 3209 3211 3211 3211 3212 3213 3216 3218 3219 3221 3221 3221 3222 3223 3224 3225
3173 3176 3176 3177 3177 3179 3180 3180 3179 3181 3182 3184 3183 3185 3185 3187 3189 3192 3193 3192 3192 3193 3195 3197 3199 3200 3200 3202 3205 3205 3206 3207 3208 3210 3212 3212 3214 3214 3215 3217 3219 3221 3223 3223 3224 3225 3225 3226 3227
3175 3173 3173 3175 3177 3175 3176 3180 3182 3181 3183 3183 3182 3186 3187 3189 3190 3193 3194 3194 3193 3194 3196 3199 3202 3202 3202 3203 3205 3205 3206 3208 3211 3212 3214 3215 3216 3217 3218 3220 3222 3223 3225 3226 3227 3227 3227 3228 3229
3177 3176 3177 3176 3176 3176 3179 3184 3180 3183 3184 3185 3185 3185 3187 3189 3191 3193 3195 3195 3195 3196 3194 3200 3202 3203 3204 3204 3206 3206 3209 3211 3213 3214 3216 3216 3217 3219 3221 3222 3224 3225 3227 3228 3228 3229 3230 3230 3232
3176 3177 3177 3180 3180 3176 3180 3183 3183 3186 3186 3187 3187 3188 3189 3191 3192 3194 3195 3196 3197 3200 3202 3204 3205 3205 3206 3206 3207 3208 3211 3212 3214 3216 3217 3217 3218 3221 3222 3223 3224 3225 3225 3226 3228 3232 3233 3233 3233
3177 3177 3179 3180 3178 3180 3182 3184 3185 3188 3187 3189 3188 3191 3193 3192 3193 3195 3196 3199 3201 3202 3204 3204 3205 3205 3205 3207 3209 3210 3212 3213 3214 3216 3219 3219 3220 3221 3223 3225 3226 3227 3227 3228 3230 3231 3232 3233 3234
3179 3180 3178 3181 3179 3178 3183 3185 3185 3186 3187 3189 3191 3193 3195 3197 3196 3198 3198 3202 3203 3203 3204 3206 3206 3205 3204 3208 3209 3212 3214 3213 3214 3217 3219 3219 3222 3223 3224 3227 3228 3229 3231 3232 3232 3234 3235 3235 3237
3182 3182 3181 3182 3182 3182 3184 3183 3184 3186 3188 3189 3191 3194 3193 3195 3196 3198 3201 3203 3203 3205 3205 3204 3205 3205 3206 3207 3209 3212 3213 3213 3215 3218 3219 3219 3222 3224 3226 3228 3229 3230 3232 3231 3232 3235 3236 3237 3236
3180 3180 3178 3178 3180 3182 3184 3183 3185 3185 3188 3190 3191 3193 3194 3196 3196 3199 3203 3203 3203 3203 3205 3205 3205 3206 3207 3208 3209 3211 3212 3215 3217 3219 3219 3222 3223 3225 3227 3229 3230 3231 3231 3232 3234 3236 3238 3237 3237
3176 3178 3176 3177 3179 3180 3182 3183 3183 3187 3188 3188 3190 3194 3194 3195 3195 3198 3201 3202 3203 3204 3204 3204 3205 3207 3210 3209 3210 3211 3213 3216 3217 3218 3219 3222 3224 3227 3229 3229 3231 3232 3232 3232 3235 3237 3238 3239 3237
3176 3179 3177 3176 3176 3177 3179 3181 3182 3185 3187 3186 3187 3191 3193 3193 3196 3197 3200 3200 3201 3203 3204 3205 3206 3207 3208 3209 3210 3212 3214 3216 3217 3219 3219 3222 3224 3226 3227 3228 3229 3231 3231 3234 3236 3238 3239 3239 3239
3175 3175 3176 3176 3174 3177 3178 3178 3178 3180 3182 3185 3186 3188 3192 3195 3195 3196 3199 3199 3201 3204 3206 3207 3207 3207 3209 3211 3211 3213 3215 3217 3217 3218 3219 3222 3222 3224 3226 3226 3228 3229 3230 3233 3237 3237 3238 3240 3239
3173 3173 3173 3175 3175 3176 3176 3175 3174 3176 3180 3181 3183 3186 3190 3193 3194 3195 3197 3198 3200 3203 3204 3205 3206 3208 3210 3211 3212 3213 3214 3216 3217 3217 3218 3222 3225 3224 3226 3224 3226 3227 3230 3232 3234 3234 3235 3238 3238
3171 3171 3172 3172 3173 3173 3173 3173 3171 3172 3173 3177 3180 3182 3186 3189 3193 3195 3197 3197 3199 3202 3204 3205 3204 3207 3209 3211 3212 3213 3214 3216 3216 3217 3218 3220 3223 3225 3227 3226 3226 3228 3230 3234 3232 3230 3233 3235 3235
3170 3170 3170 3171 3170 3172 3172 3173 3168 3168 3169 3171 3174 3179 3182 3186 3190 3192 3196 3198 3199 3202 3204 3204 3205 3207 3209 3211 3213 3214 3215 3216 3217 3216 3218 3219 3221 3222 3225 3227 3228 3229 3231 3231 3231 3231 3231 3232 3232
3168 3170 3170 3170 3170 3171 3170 3171 3165 3166 3167 3167 3171 3174 3179 3184 3187 3190 3193 3197 3200 3201 3202 3204 3204 3205 3209 3211 3213 3214 3215 3216 3218 3218 3218 3219 3220 3223 3224 3226 3228 3229 3229 3230 3229 3228 3229 3231 3231
3165 3166 3167 3169 3171 3170 3168 3168 3164 3164 3163 3163 3164 3171 3177 3181 3185 3187 3189 3192 3197 3200 3201 3203 3204 3205 3207 3210 3211 3214 3215 3216 3217 3218 3218 3220 3221 3222 3224 3226 3228 3229 3229 3229 3229 3229 3228 3229 3229
3163 3165 3166 3169 3171 3167 3166 3165 3163 3161 3160 3161 3161 3166 3172 3176 3180 3184 3187 3188 3195 3198 3201 3202 3202 3204 3205 3208 3210 3212 3213 3214 3216 3216 3218 3219 3221 3221 3223 3224 3225 3225 3226 3227 3228 3227 3228 3227 3226
3162 3162 3164 3164 3166 3166 3165 3164 3163 3160 3159 3158 3158 3161 3164 3171 3177 3181 3184 3185 3190 3195 3198 3200 3201 3202 3204 3206 3208 3210 3211 3213 3215 3214 3216 3218 3219 3220 3220 3222 3223 3224 3224 3224 3225 3225 3225 3224 3223
3160 3162 3162 3162 3166 3166 3163 3162 3161 3159 3158 3158 3158 3157 3162 3167 3171 3175 3178 3180 3185 3191 3195 3198 3199 3201 3202 3203 3205 3208 3210 3211 3212 3213 3216 3217 3217 3217 3219 3220 3221 3222 3222 3222 3223 3222 3222 3222 3222
3160 3160 3161 3161 3162 3161 3164 3160 3158 3155 3154 3154 3155 3155 3158 3163 3164 3168 3170 3174 3179 3185 3191 3194 3197 3199 3200 3201 3203 3204 3207 3209 3210 3212 3214 3215 3216 3217 3218 3219 3220 3221 3221 3221 3222 3222 3222 3221 3220
3158 3157 3158 3159 3160 3158 3159 3158 3155 3155 3154 3153 3154 3152 3154 3152 3149 3159 3163 3167 3172 3179 3183 3188 3194 3196 3198 3199 3200 3201 3203 3206 3208 3210 3212 3215 3216 3216 3217 3217 3219 3220 3221 3221 3220 3220 3220 3219 3218
Wind_Speed
5 5 1 7 5 6 9 10 12 12 7 5 9 14 15 7 7 3 8 10 16 12 11 13 12 11 18 13 13 17 20 20 20 19 19 19 19 19 19 19 20 19 18 17 16 16 16 16 15
5 6 11 8 9 15 15 11 10 9 6 7 5 7 12 8 3 17 20 24 22 20 18 19 17 20 23 23 27 27 24 23 22 21 20 20 19 19 19 19 19 19 18 17 16 15 17 17 16
6 9 13 9 10 18 21 11 12 13 13 8 7 10 14 17 22 25 26 27 27 27 27 28 27 28 26 27 28 28 24 22 21 20 20 19 19 18 17 17 17 18 18 16 16 17 17 17 16
8 10 2 7 13 17 12 12 10 15 13 11 17 25 26 20 20 24 28 28 25 23 23 21 22 22 22 22 21 20 21 19 19 20 20 20 19 18 17 17 17 18 18 18 18 18 18 16 15
5 7 10 6 13 17 23 18 3 11 11 9 12 26 27 18 21 19 19 20 16 15 17 18 19 19 19 19 19 18 18 18 18 19 19 18 18 16 17 16 17 18 19 19 18 18 17 16 15
4 7 5 12 19 19 11 3 15 10 6 9 15 24 25 16 13 19 16 17 18 15 16 15 16 17 18 18 17 17 17 17 18 17 17 16 16 16 16 16 17 19 19 19 18 16 16 16 16
5 9 6 6 17 10 14 15 12 10 7 10 11 24 23 16 14 18 13 16 18 18 15 15 15 17 16 16 16 17 17 17 18 18 17 16 17 15 16 18 17 18 19 18 17 16 15 16 19
13 21 5 6 10 15 12 18 14 6 8 8 7 14 19 20 16 14 13 14 13 18 16 16 15 15 15 16 17 17 16 16 16 17 18 17 16 14 17 19 19 18 17 18 17 16 16 16 18
12 10 3 7 16 15 15 22 10 10 4 6 6 10 14 17 16 10 12 18 14 14 16 15 16 17 15 15 15 16 15 15 15 15 16 17 17 16 17 19 19 18 17 18 17 17 17 17 15
3 5 17 7 15 11 12 17 14 12 11 10 14 11 14 13 12 10 15 13 11 13 13 14 15 16 16 15 15 15 16 16 17 16 15 15 16 18 19 19 18 18 17 17 17 17 17 17 18
8 15 5 10 14 11 13 27 18 11 9 4 3 13 15 14 9 12 13 13 13 12 9 12 11 13 15 14 14 15 15 15 14 15 14 13 14 17 19 18 17 17 16 15 15 15 17 18 18
8 5 11 16 14 14 18 16 21 9 4 4 1 8 14 13 7 9 11 12 10 9 11 15 13 11 13 15 13 15 16 13 9 15 14 16 16 16 19 18 17 16 14 12 12 11 16 18 16
3 9 7 12 7 15 15 17 18 13 13 7 6 8 11 9 7 5 6 7 6 5 13 13 10 11 13 14 11 16 16 16 14 16 15 15 12 16 19 19 18 16 16 15 16 13 10 15 14
6 7 6 8 6 9 13 18 17 8 6 12 8 12 13 11 11 8 8 4 5 7 13 12 14 9 14 14 14 15 15 21 15 10 12 9 13 16 18 18 17 15 16 18 19 15 11 9 9
9 7 6 7 6 15 12 16 17 19 10 13 13 15 17 15 11 2 6 3 1 10 7 11 11 11 10 18 16 17 15 16 12 12 7 8 12 18 15 16 15 15 13 13 12 12 11 12 8
3 5 4 2 5 5 12 15 19 28 27 9 9 16 16 12 6 6 10 5 5 6 7 6 11 12 15 13 16 16 12 16 14 11 11 11 13 12 9 15 14 12 12 13 13 13 12 14 13
4 5 5 2 5 9 10 13 17 16 20 15 13 7 10 11 12 11 9 8 7 4 3 5 11 15 16 17 14 15 17 11 14 15 14 10 12 9 10 12 13 7 14 15 13 12 11 11 8
9 6 5 7 7 14 9 15 14 17 20 25 23 11 12 7 12 11 9 6 9 7 3 2 11 14 16 16 15 13 13 13 8 7 10 8 11 10 5 7 8 11 13 14 12 10 9 10 6
5 9 10 17 6 6 9 17 17 18 25 21 25 21 16 12 11 14 9 10 9 5 4 5 8 12 15 13 14 15 16 10 13 9 13 11 12 10 13 10 12 17 15 12 11 9 6 9 7
10 13 9 7 2 10 9 11 15 17 33 20 26 26 20 15 17 12 7 7 10 7 9 9 13 13 15 17 15 15 15 12 13 12 14 15 14 15 10 6 15 22 14 15 10 12 9 8 10
9 11 9 3 7 5 5 13 13 24 29 28 16 30 28 20 20 14 6 5 9 6 6 9 15 14 16 16 15 15 13 13 17 11 12 14 15 11 8 14 15 17 14 8 13 8 8 11 8
6 7 11 7 12 6 12 5 12 14 20 31 29 31 31 23 22 19 11 5 9 6 4 3 11 12 13 17 16 10 11 15 17 16 13 13 15 17 15 18 8 12 18 11 7 8 7 8 10
8 4 8 8 11 6 11 6 8 14 19 29 39 33 34 29 24 18 13 5 2 6 4 1 5 13 14 17 14 16 14 15 11 13 11 12 14 16 14 14 14 10 11 8 7 7 9 8 8
3 6 6 5 14 3 5 13 7 8 10 11 36 39 34 34 24 24 19 12 5 5 5 3 5 11 14 16 15 15 14 14 11 13 11 10 10 14 16 16 15 11 9 10 8 7 9 7 8
2 3 3 1 1 5 3 4 7 14 15 10 12 40 35 31 24 26 24 22 14 4 4 5 5 11 15 16 14 14 16 17 12 12 13 10 9 9 12 12 9 7 7 6 6 8 7 8 7
7 8 3 5 3 4 7 4 5 16 19 13 10 23 32 39 30 32 26 26 21 11 6 5 6 9 13 17 17 16 16 13 13 15 12 11 8 7 6 9 8 5 4 6 9 8 7 9 9
1 4 3 4 3 1 2 5 10 9 12 12 13 21 33 39 33 33 34 31 29 20 12 7 7 7 12 15 18 17 18 17 17 15 12 11 9 6 8 7 5 4 6 5 6 9 6 6 7
2 2 3 3 3 2 2 3 6 8 16 20 15 14 31 35 39 37 33 34 33 26 16 14 10 7 8 13 17 19 19 17 17 17 12 9 9 9 9 6 8 5 7 8 6 4 5 5 7
2 4 2 1 3 6 1 5 4 1 12 15 15 11 12 21 37 39 36 35 38 28 25 21 14 11 7 12 17 19 19 20 19 18 14 12 13 11 11 9 13 9 7 6 6 5 5 6 8
8 7 2 5 6 5 3 4 5 9 11 11 6 10 8 14 28 48 40 34 36 38 30 28 18 15 8 10 15 19 21 22 21 19 17 14 14 15 13 10 9 9 8 7 7 6 6 7 8
Wind_Direction
81 22 104 146 101 100 81 130 120 116 132 146 187 174 193 189 168 215 146 140 123 133 137 145 150 128 161 147 158 169 152 146 136 130 124 126 124 125 128 124 120 120 122 124 123 121 121 119 120
42 14 168 141 123 116 98 114 106 80 93 127 136 192 190 173 174 126 119 110 118 126 123 126 145 131 136 142 139 135 137 136 133 126 122 122 124 124 123 119 118 119 120 121 116 116 113 111 109
46 115 114 131 130 129 120 123 109 77 57 7 128 152 152 126 125 107 101 111 115 112 113 110 117 121 128 135 129 131 128 127 124 121 119 120 122 121 120 118 116 113 115 114 115 113 109 107 106
80 142 171 122 143 136 144 137 102 104 104 66 104 115 116 115 107 102 104 116 120 115 115 113 114 117 124 124 126 122 124 123 122 119 121 120 120 120 118 116 112 112 114 115 113 110 108 106 104
50 96 125 122 154 142 126 134 158 131 98 68 145 120 112 116 113 110 117 125 122 117 115 113 117 121 123 124 124 124 124 122 118 121 123 119 118 120 116 113 115 115 114 112 110 109 109 109 102
104 221 146 107 126 133 154 281 168 154 136 108 143 130 110 107 119 120 111 113 120 120 115 120 121 120 122 124 125 125 127 125 122 126 127 127 124 118 119 115 115 114 115 115 115 113 111 106 103
14 204 124 143 145 140 150 168 189 176 162 112 131 132 119 117 129 129 114 127 125 117 121 125 127 128 130 130 130 128 130 126 129 129 131 128 125 121 119 117 120 117 122 122 117 112 108 108 108
325 176 331 112 110 130 140 162 177 175 131 93 95 151 127 105 123 118 123 128 130 126 129 130 132 131 133 134 136 133 133 130 127 127 132 132 127 128 124 123 127 129 122 116 112 113 111 111 111
131 222 166 128 140 118 164 173 205 181 137 112 88 142 122 118 126 104 126 129 122 128 130 138 144 139 137 134 133 138 135 125 124 129 136 135 134 133 131 128 128 124 122 121 120 118 115 110 105
33 257 195 209 159 142 140 187 157 182 151 146 134 131 121 134 114 94 118 130 105 120 132 145 145 141 138 137 139 140 137 134 137 138 140 140 142 137 134 131 127 124 125 128 125 124 118 116 115
36 110 130 155 152 139 114 163 183 165 181 260 57 136 128 120 103 104 102 97 105 111 156 148 146 150 138 128 136 140 137 143 139 144 136 139 138 140 134 133 129 128 132 129 124 123 119 115 114
43 157 155 105 141 122 144 166 204 187 136 166 118 82 142 145 116 93 81 82 85 94 120 149 164 155 139 132 145 146 144 134 150 155 137 133 135 143 138 136 132 136 131 134 142 135 129 123 123
65 155 158 181 193 96 121 148 189 174 155 164 109 145 141 155 154 117 88 96 83 109 140 160 170 158 147 126 147 152 132 150 150 143 141 146 136 139 147 149 143 138 133 136 140 142 142 133 131
66 128 134 160 242 153 131 129 153 170 165 162 159 155 162 182 195 190 168 97 53 127 149 163 163 144 148 143 152 151 153 147 135 129 146 136 142 153 160 158 155 152 146 136 139 142 128 133 122
104 136 162 173 82 142 129 151 159 166 153 154 160 167 169 186 212 244 216 140 40 149 136 159 159 152 137 145 154 159 146 141 128 147 131 167 170 158 168 166 165 154 143 140 136 134 124 121 97
116 101 145 143 243 229 191 144 164 162 167 152 172 168 196 188 175 236 214 246 306 240 177 151 161 152 150 157 168 162 140 143 145 154 164 178 165 179 168 172 166 162 155 162 151 149 139 126 106
186 165 162 125 41 180 194 190 173 189 170 192 203 177 177 186 192 228 235 286 304 267 180 159 172 158 167 168 170 155 149 156 164 167 171 163 158 162 169 189 174 198 176 172 171 165 161 145 135
216 167 116 197 139 191 214 181 172 195 193 198 205 202 195 210 215 239 225 280 259 253 229 288 171 161 159 165 166 147 155 147 171 179 183 171 152 174 177 168 198 174 184 180 180 182 183 202 197
196 160 90 127 72 203 203 216 206 197 192 196 201 217 206 209 215 237 256 244 235 189 242 265 222 164 148 144 168 180 182 166 150 165 172 162 156 152 200 219 195 173 185 208 197 193 231 237 267
229 192 183 182 255 182 209 233 233 211 195 195 209 216 212 201 197 212 256 254 235 257 252 240 238 192 168 170 173 165 171 165 152 172 155 124 157 170 159 194 168 187 188 213 209 218 231 263 292
189 239 210 187 198 186 228 244 217 199 196 208 216 215 211 213 204 223 258 214 197 243 239 229 229 227 177 179 170 170 162 159 158 167 170 150 165 171 122 143 169 198 198 216 219 208 201 242 265
269 204 181 194 193 220 203 247 232 222 212 206 204 215 213 210 213 221 246 287 213 218 179 236 229 230 176 178 181 179 173 173 169 172 177 151 158 149 145 164 140 164 200 213 204 241 217 242 243
303 215 233 270 223 211 224 251 262 240 231 226 216 212 214 209 210 216 230 255 228 195 164 219 242 213 187 180 183 180 176 172 171 162 170 169 159 161 165 169 176 176 175 197 195 219 232 239 260
268 233 209 201 231 249 295 222 310 329 309 284 210 209 212 212 214 211 225 247 226 196 195 233 301 225 211 200 204 196 186 188 185 175 181 192 176 173 169 175 194 194 209 221 239 263 260 255 258
271 321 327 321 83 227 10 245 263 305 301 289 230 218 209 214 218 209 228 225 225 249 177 199 275 239 213 211 211 203 196 182 182 183 185 187 198 186 175 191 204 196 200 217 242 258 278 284 276
234 296 239 175 192 277 309 275 289 311 310 285 210 198 216 218 220 211 227 223 227 245 238 199 236 249 230 213 209 206 202 199 194 195 199 191 198 182 207 185 194 185 237 241 236 238 248 254 263
107 74 99 111 101 283 314 309 315 316 301 260 231 226 203 208 215 207 216 225 225 231 240 219 208 239 239 223 218 209 210 204 199 202 203 199 182 169 175 178 193 214 232 242 257 264 240 249 251
232 163 162 144 144 231 269 272 333 328 293 260 250 236 203 207 211 215 222 226 228 231 233 239 221 227 247 233 229 224 216 215 209 211 205 195 198 205 203 216 204 220 233 235 232 243 274 261 282
8 333 308 173 188 165 219 253 347 240 1 251 259 218 204 214 227 223 218 222 224 227 242 226 228 234 250 249 233 231 222 220 223 220 212 208 211 218 224 209 209 216 224 235 239 252 267 280 292
327 313 307 242 207 185 168 274 252 261 324 275 246 271 262 246 224 214 226 216 216 223 223 228 235 237 239 246 242 231 226 220 222 220 218 210 202 211 214 219 222 228 229 240 248 262 275 287 293